Weather History for Punta Gorda, FL

Change the Weather History Date:

Monday, April 29, 2013

  Actual Average Record
Temperature  
Mean Temperature 76 °F -  
Max Temperature 88 °F 83 °F 91 °F (2007)
Min Temperature 66 °F 61 °F 54 °F (2006)
Cooling Degree Days 12    
Growing Degree Days 26 (Base 50)    
Moisture  
Dew Point 64 °F    
Average Humidity 70    
Maximum Humidity 93    
Minimum Humidity 48    
Precipitation  
Precipitation 0.00 in - - ()
Sea Level Pressure  
Sea Level Pressure 30.00 in    
Wind  
Wind Speed 8 mph (SSE)    
Max Wind Speed 16 mph    
Max Gust Speed -    
Visibility 10 miles    
Events Thunderstorm    
Averages and records for this station are not official NWS values.
T = Trace of Precipitation, MM = Missing Value Source: NWS Daily Summary

Daily Weather History Graph

Daily Weather History Graph

Search for Another Location

Airport:

Trip Planner

Search our weather history database for the weather conditions in past years. The results will help you decide how hot, cold, wet, or windy it might be!

Date:

Astronomy

Apr. 29, 2013 Rise Set
Actual Time 6:51 AM EDT 7:59 PM EDT
Civil Twilight 6:26 AM EDT 8:24 PM EDT
Nautical Twilight 5:57 AM EDT 8:53 PM EDT
Astronomical Twilight 5:27 AM EDT 9:23 PM EDT
Moon No Moon Rise 10:19 AM EDT (4/29)
Length of Visible Light 13h 57m
Length of Day
13h 08m
Waning Gibbous, 80% of the Moon is Illuminated
Apr 29
Waning Gibbous
May 2
Last Quarter
May 9
New
May 18
First Quarter
May 25
Full

Hourly Weather History & Observations

Time (EDT) Temp. Heat Index Dew Point Humidity Pressure Visibility Wind Dir Wind Speed Gust Speed Precip Events Conditions
12:53 AM 73.0 °F - 61.0 °F 66% 30.05 in 10.0 mi SE 10.4 mph - N/A   Mostly Cloudy
1:53 AM 71.1 °F - 60.1 °F 68% 30.04 in 10.0 mi SE 8.1 mph - N/A   Clear
2:53 AM 68.0 °F - 61.0 °F 78% 30.02 in 10.0 mi SSE 9.2 mph - N/A   Clear
3:53 AM 68.0 °F - 61.0 °F 78% 30.01 in 10.0 mi SSE 6.9 mph - N/A   Clear
4:53 AM 66.9 °F - 61.0 °F 81% 30.01 in 10.0 mi ESE 5.8 mph - N/A   Clear
5:53 AM 66.0 °F - 61.0 °F 84% 30.00 in 10.0 mi ESE 5.8 mph - N/A   Clear
6:53 AM 66.0 °F - 61.0 °F 84% 30.02 in 10.0 mi ESE 5.8 mph - N/A   Clear
7:53 AM 70.0 °F - 63.0 °F 78% 30.03 in 10.0 mi SE 8.1 mph - N/A   Clear
8:53 AM 73.9 °F - 64.0 °F 71% 30.04 in 10.0 mi SE 6.9 mph - N/A   Clear
9:53 AM 79.0 °F - 64.9 °F 62% 30.04 in 10.0 mi SE 13.8 mph - N/A   Clear
10:53 AM 81.0 °F 83.0 °F 66.0 °F 60% 30.05 in 10.0 mi SSE 11.5 mph - N/A   Partly Cloudy
11:53 AM 82.9 °F 84.6 °F 64.9 °F 54% 30.04 in 10.0 mi SE 5.8 mph - N/A   Clear
12:53 PM 84.9 °F 85.9 °F 63.0 °F 48% 30.03 in 10.0 mi South 3.5 mph - N/A   Partly Cloudy
1:53 PM 86.0 °F 87.6 °F 64.9 °F 49% 30.01 in 10.0 mi WSW 8.1 mph - N/A   Partly Cloudy
2:53 PM 86.0 °F 88.2 °F 66.0 °F 51% 29.98 in 10.0 mi West 9.2 mph - N/A   Partly Cloudy
3:53 PM 87.1 °F 88.9 °F 64.9 °F 48% 29.97 in 10.0 mi WSW 10.4 mph - N/A   Clear
4:53 PM 84.9 °F 87.1 °F 66.0 °F 53% 29.96 in 10.0 mi WSW 16.1 mph - N/A   Clear
5:53 PM 82.0 °F 84.5 °F 66.9 °F 60% 29.96 in 10.0 mi SW 12.7 mph - N/A   Scattered Clouds
6:53 PM 73.0 °F - 66.0 °F 79% 29.98 in 10.0 mi South 12.7 mph - N/A Thunderstorm Mostly Cloudy
7:17 PM 73.4 °F - 66.2 °F 78% 29.97 in 10.0 mi SSE 9.2 mph - 0.00 in   Overcast
7:53 PM 75.0 °F - 64.9 °F 71% 29.97 in 10.0 mi South 8.1 mph - 0.00 in   Mostly Cloudy
8:53 PM 72.0 °F - 66.0 °F 81% 29.97 in 10.0 mi Calm Calm - N/A   Clear
9:53 PM 69.1 °F - 66.0 °F 90% 29.97 in 10.0 mi ESE 3.5 mph - N/A   Clear
10:53 PM 68.0 °F - 64.9 °F 90% 29.99 in 10.0 mi NE 3.5 mph - N/A   Clear
11:53 PM 66.9 °F - 64.9 °F 93% 29.99 in 10.0 mi NE 4.6 mph - N/A   Clear